Total_Precipitation_Accumulation
0.00 0.00 0.00 0.00 0.00 0.00 0.00 0.00 0.00 0.01 0.07 0.06 0.04 0.16 0.21 0.18 0.20 0.27 0.24 0.19 0.08 0.04 0.02 0.00 0.00 0.00 0.00 0.00 0.00 0.00 0.00 0.00 0.00 0.00 0.00 0.00 0.00 0.00 0.00 0.00 0.00 0.00 0.00
0.00 0.00 0.00 0.00 0.00 0.00 0.00 0.00 0.00 0.00 0.00 0.01 0.04 0.14 0.41 0.39 0.48 0.42 0.27 0.23 0.22 0.25 0.09 0.03 0.01 0.00 0.00 0.00 0.00 0.00 0.00 0.00 0.00 0.01 0.02 0.02 0.00 0.00 0.00 0.00 0.00 0.00 0.00
0.00 0.00 0.00 0.00 0.00 0.00 0.00 0.00 0.00 0.00 0.00 0.01 0.06 0.13 0.32 0.34 0.29 0.22 0.16 0.13 0.20 0.38 0.21 0.06 0.05 0.05 0.07 0.07 0.03 0.02 0.02 0.03 0.01 0.00 0.04 0.07 0.03 0.02 0.00 0.00 0.00 0.00 0.00
0.00 0.00 0.00 0.00 0.00 0.00 0.00 0.00 0.00 0.00 0.00 0.00 0.02 0.03 0.11 0.17 0.16 0.23 0.30 0.22 0.22 0.35 0.24 0.14 0.10 0.09 0.10 0.11 0.09 0.04 0.02 0.03 0.04 0.03 0.01 0.04 0.06 0.09 0.06 0.01 0.01 0.01 0.01
0.00 0.00 0.00 0.00 0.00 0.00 0.00 0.00 0.00 0.00 0.00 0.00 0.00 0.02 0.14 0.16 0.18 0.21 0.20 0.21 0.24 0.24 0.24 0.19 0.10 0.11 0.15 0.10 0.08 0.07 0.04 0.03 0.04 0.04 0.04 0.04 0.05 0.07 0.11 0.10 0.02 0.01 0.01
0.00 0.00 0.00 0.00 0.00 0.00 0.00 0.00 0.00 0.00 0.00 0.00 0.00 0.01 0.04 0.13 0.18 0.14 0.13 0.17 0.18 0.15 0.13 0.14 0.15 0.10 0.09 0.08 0.07 0.06 0.04 0.03 0.06 0.08 0.08 0.11 0.16 0.14 0.17 0.15 0.07 0.05 0.02
0.00 0.00 0.00 0.00 0.00 0.00 0.00 0.00 0.00 0.00 0.00 0.00 0.01 0.01 0.01 0.05 0.08 0.09 0.10 0.12 0.12 0.10 0.08 0.12 0.12 0.10 0.07 0.06 0.05 0.04 0.04 0.04 0.08 0.12 0.14 0.13 0.14 0.14 0.18 0.24 0.17 0.15 0.09
0.00 0.00 0.00 0.00 0.00 0.00 0.00 0.00 0.00 0.00 0.00 0.00 0.00 0.00 0.03 0.04 0.06 0.08 0.08 0.08 0.09 0.11 0.09 0.09 0.09 0.07 0.06 0.04 0.03 0.04 0.04 0.06 0.09 0.11 0.12 0.15 0.14 0.15 0.20 0.26 0.29 0.21 0.11
0.00 0.00 0.00 0.00 0.00 0.00 0.00 0.00 0.00 0.00 0.00 0.03 0.02 0.01 0.02 0.04 0.06 0.09 0.11 0.10 0.10 0.11 0.09 0.10 0.08 0.06 0.03 0.02 0.01 0.02 0.02 0.04 0.08 0.09 0.12 0.15 0.15 0.18 0.18 0.23 0.28 0.37 0.27
0.00 0.00 0.00 0.00 0.00 0.00 0.00 0.00 0.00 0.00 0.01 0.01 0.00 0.01 0.03 0.05 0.06 0.06 0.07 0.09 0.10 0.08 0.09 0.07 0.04 0.02 0.01 0.01 0.01 0.01 0.01 0.02 0.04 0.07 0.09 0.10 0.13 0.16 0.17 0.18 0.17 0.23 0.29
0.00 0.00 0.00 0.00 0.00 0.00 0.00 0.00 0.00 0.00 0.01 0.00 0.00 0.02 0.03 0.04 0.06 0.04 0.04 0.05 0.05 0.05 0.04 0.03 0.01 0.00 0.00 0.00 0.00 0.00 0.00 0.00 0.02 0.04 0.08 0.09 0.11 0.11 0.10 0.10 0.11 0.15 0.22
0.00 0.00 0.00 0.00 0.00 0.00 0.00 0.00 0.00 0.00 0.00 0.00 0.00 0.01 0.02 0.04 0.05 0.05 0.03 0.02 0.02 0.01 0.01 0.00 0.01 0.01 0.00 0.00 0.00 0.00 0.00 0.00 0.00 0.01 0.05 0.07 0.09 0.11 0.11 0.10 0.10 0.13 0.15
0.00 0.00 0.00 0.00 0.00 0.00 0.00 0.00 0.01 0.00 0.00 0.00 0.00 0.00 0.00 0.00 0.01 0.01 0.02 0.02 0.02 0.01 0.01 0.01 0.01 0.00 0.00 0.00 0.00 0.00 0.00 0.01 0.01 0.01 0.02 0.03 0.06 0.07 0.06 0.07 0.08 0.13 0.22
0.00 0.00 0.02 0.01 0.00 0.00 0.01 0.02 0.01 0.01 0.01 0.01 0.01 0.01 0.02 0.02 0.01 0.01 0.01 0.01 0.02 0.01 0.00 0.00 0.00 0.00 0.00 0.00 0.01 0.02 0.04 0.03 0.01 0.00 0.00 0.01 0.01 0.02 0.02 0.04 0.13 0.21 0.32
0.00 0.00 0.14 0.18 0.03 0.02 0.01 0.01 0.02 0.03 0.03 0.03 0.03 0.04 0.03 0.02 0.02 0.01 0.01 0.01 0.01 0.00 0.01 0.01 0.00 0.01 0.01 0.01 0.02 0.02 0.02 0.00 0.01 0.01 0.01 0.00 0.00 0.00 0.04 0.10 0.15 0.32 0.40
0.01 0.00 0.02 0.20 0.16 0.02 0.01 0.03 0.03 0.04 0.07 0.06 0.05 0.03 0.02 0.02 0.01 0.02 0.01 0.01 0.01 0.03 0.03 0.04 0.06 0.08 0.10 0.14 0.10 0.03 0.01 0.00 0.01 0.01 0.00 0.00 0.00 0.00 0.04 0.10 0.18 0.33 0.64
0.01 0.01 0.00 0.00 0.04 0.17 0.12 0.12 0.14 0.21 0.19 0.12 0.07 0.04 0.03 0.07 0.06 0.06 0.05 0.05 0.05 0.07 0.10 0.14 0.14 0.10 0.08 0.07 0.04 0.02 0.01 0.01 0.00 0.00 0.00 0.00 0.00 0.01 0.03 0.08 0.16 0.33 0.61
0.02 0.01 0.00 0.00 0.00 0.00 0.01 0.02 0.04 0.07 0.19 0.19 0.22 0.13 0.13 0.26 0.30 0.26 0.30 0.14 0.15 0.15 0.17 0.19 0.21 0.16 0.09 0.03 0.01 0.00 0.00 0.00 0.00 0.00 0.00 0.01 0.02 0.03 0.06 0.14 0.39 0.35 0.21
0.01 0.01 0.00 0.00 0.01 0.01 0.01 0.02 0.03 0.05 0.03 0.07 0.10 0.14 0.38 0.51 0.47 0.30 0.47 0.43 0.29 0.28 0.23 0.17 0.11 0.04 0.00 0.00 0.00 0.00 0.00 0.00 0.00 0.00 0.01 0.05 0.03 0.03 0.13 0.37 0.41 0.19 0.13
0.02 0.01 0.00 0.01 0.03 0.03 0.03 0.05 0.04 0.05 0.12 0.09 0.06 0.27 0.69 0.56 0.44 0.22 0.37 0.43 0.28 0.14 0.08 0.04 0.02 0.00 0.00 0.00 0.00 0.00 0.01 0.01 0.00 0.02 0.02 0.03 0.04 0.10 0.36 0.27 0.24 0.26 0.17
0.15 0.08 0.07 0.08 0.18 0.15 0.21 0.27 0.22 0.35 0.44 0.27 0.22 0.41 0.47 0.45 0.34 0.19 0.13 0.07 0.04 0.02 0.01 0.00 0.00 0.00 0.00 0.00 0.00 0.00 0.02 0.03 0.14 0.11 0.03 0.03 0.14 0.35 0.21 0.16 0.19 0.22 0.27
0.35 0.50 0.30 0.37 0.54 0.56 0.74 0.74 0.68 0.66 0.57 0.41 0.35 0.30 0.22 0.20 0.18 0.06 0.02 0.01 0.01 0.00 0.00 0.00 0.00 0.00 0.00 0.00 0.00 0.01 0.03 0.07 0.10 0.05 0.02 0.09 0.23 0.09 0.05 0.09 0.18 0.32 0.31
0.03 0.18 0.11 0.17 0.23 0.30 0.35 0.48 0.40 0.33 0.32 0.22 0.16 0.11 0.09 0.07 0.04 0.02 0.01 0.00 0.00 0.00 0.00 0.00 0.00 0.00 0.00 0.00 0.00 0.00 0.07 0.09 0.07 0.05 0.16 0.15 0.03 0.03 0.04 0.10 0.17 0.16 0.15
0.01 0.01 0.02 0.01 0.03 0.05 0.08 0.10 0.03 0.04 0.06 0.06 0.05 0.04 0.02 0.00 0.00 0.00 0.00 0.00 0.00 0.00 0.00 0.00 0.00 0.00 0.00 0.00 0.00 0.03 0.05 0.04 0.08 0.17 0.14 0.02 0.03 0.05 0.06 0.08 0.07 0.07 0.17
0.00 0.01 0.00 0.00 0.00 0.00 0.00 0.00 0.00 0.00 0.00 0.00 0.00 0.00 0.00 0.00 0.00 0.00 0.00 0.00 0.00 0.00 0.00 0.00 0.01 0.01 0.01 0.01 0.04 0.06 0.05 0.09 0.16 0.07 0.01 0.01 0.02 0.02 0.02 0.04 0.06 0.11 0.24
0.00 0.00 0.00 0.00 0.00 0.00 0.00 0.00 0.00 0.00 0.00 0.00 0.00 0.00 0.00 0.00 0.00 0.00 0.00 0.00 0.00 0.00 0.00 0.00 0.01 0.01 0.02 0.03 0.05 0.05 0.12 0.16 0.07 0.05 0.03 0.04 0.05 0.08 0.09 0.11 0.15 0.20 0.32